Regional Weather Roundup
Issued by NWS

Home | Current Version | Previous Version | Graphics & Text | Print | Product List | Glossary Off
Versions: 1 2 3 4 5 6 7 8 9 10 11 12 13 14 15 16 17 18 19 20 21 22 23 24 25 26 27 28 29 30 31 32 33 34 35 36 37 38 39 40 41 42 43 44 45 46 47 48 49 50

000
ASUS43 KFSD 060002
RWRSD

WEATHER ROUNDUP FOR SOUTH DAKOTA
NATIONAL WEATHER SERVICE SIOUX FALLS SD
600 PM CST MON DEC 05 2016

NOTE: "FAIR" INDICATES FEW OR NO CLOUDS BELOW 12,000 FEET WITH NO
SIGNIFICANT WEATHER AND/OR OBSTRUCTIONS TO VISIBILITY.


SDZ001>005-009-010-012>017-060100-
NORTHWEST AND NORTH CENTRAL SOUTH DAKOTA

CITY           SKY/WX    TMP DP  RH WIND       PRES   REMARKS
BUFFALO          N/A     12   5  73 NW31G38   29.75R WCI -10
FAITH            N/A     16  14  92 NW35G45   29.77R WCI  -5
MOBRIDGE       BLWGSNOW  22  16  78 NW33G45   29.67R VSB 3/4 WCI   3
$$

SDZ012>016-024>037-041>051-057-063-072>074-060100-
SOUTHWEST AND SOUTH CENTRAL SOUTH DAKOTA

CITY           SKY/WX    TMP DP  RH WIND       PRES   REMARKS
RAPID CTY ARPT PTCLDY    21  13  71 NW23      29.82R WCI   5
PIERRE         HVY SNOW  24  19  81 NW40G54   29.76R VSB 1/4 WCI   5
CUSTER         CLEAR     13   2  61 NW12G30   29.70R WCI  -1
ELLSWORTH AFB  PTCLDY    21  13  72 N23G29    29.81R WCI   5
PHILIP         CLOUDY    26  16  65 NW17G28   29.83  WCI  13
PINE RIDGE     FLURRIES  21  18  88 N9        29.83R WCI  11
SPEARFISH      FLURRIES  19  10  68 W24G35    29.82R WCI   2
WINNER         MOCLDY    27  20  75 NW29G38   29.78R WCI  11
$$

SDZ004>011-016>023-039-040-060100-
NORTHEAST SOUTH DAKOTA

CITY           SKY/WX    TMP DP  RH WIND       PRES   REMARKS
ABERDEEN       FLURRIES  32  27  81 W26G33    29.56R WCI  18
WATERTOWN      CLOUDY    32  28  85 W21       29.50R WCI  20
SISSETON         N/A     34  32  92 SW5       29.46S WCI  30
$$

SDZ017-020-022-023-036>040-048>070-060100-
SOUTHEAST SOUTH DAKOTA

CITY           SKY/WX    TMP DP  RH WIND       PRES   REMARKS
SIOUX FALLS    MOCLDY    36  30  79 W15G28    29.63R
HURON          CLOUDY    31  25  78 NW24G37   29.65R WCI  17
MITCHELL       CLOUDY    33  26  75 W24G33    29.70R WCI  20
YANKTON        CLOUDY   N/A N/A N/A W16G31    29.70R
$$

ABBREVIATIONS USED IN REMARKS
   TC - TEMPERATURE IN CELSIUS
  WCI - WIND CHILL INDEX
   HX - HEAT INDEX
  VSB - VISIBILITY





USA.gov is the U.S. government's official web portal to all federal, state and local government web resources and services.